Location: *
(44.3683°N, 6.6958°E)
Time: 19:20:21
(UTC+00:00)

Cosmos 292 Rocket - Pass Details

Date: 14 October 2019
Orbit: 673 x 695 km, 74.0° (Epoch: 17 November)

Event Time Altitude Azimuth Distance (km) Brightness Sun altitude
Rises 17:58:36 0° 179° (S) 3,012 7.1 -12.8°
Reaches altitude 10° 18:01:00 10° 172° (S) 2,101 6.2 -13.2°
Maximum altitude 18:05:23 40° 103° (ESE) 1,000 4.1 -14.0°
Drops below altitude 10° 18:09:48 10° 35° (NE) 2,114 6.0 -14.8°
Sets 18:12:13 0° 28° (NNE) 3,034 6.9 -15.2°
